TimeEDT,TemperatureF,Dew PointF,Humidity,Sea Level PressureIn,VisibilityMPH,Wind Direction,Wind SpeedMPH,Gust SpeedMPH,PrecipitationIn,Events,Conditions,WindDirDegrees,DateUTC
12:52 AM,42.1,39.0,89,30.15,10.0,Calm,Calm,-,N/A,,Clear,0,2013-09-09 04:52:00
1:52 AM,42.1,39.0,89,30.15,10.0,Calm,Calm,-,N/A,,Clear,0,2013-09-09 05:52:00
2:52 AM,41.0,37.9,89,30.17,10.0,Calm,Calm,-,N/A,,Clear,0,2013-09-09 06:52:00
3:52 AM,39.9,37.0,89,30.17,10.0,Calm,Calm,-,N/A,,Clear,0,2013-09-09 07:52:00
4:52 AM,37.9,36.0,93,30.20,10.0,Calm,Calm,-,N/A,,Clear,0,2013-09-09 08:52:00
5:52 AM,37.9,36.0,93,30.22,10.0,South,3.5,-,N/A,,Clear,190,2013-09-09 09:52:00
6:07 AM,37.4,35.6,93,30.20,10.0,Calm,Calm,-,N/A,,Scattered Clouds,0,2013-09-09 10:07:00
6:52 AM,37.0,36.0,96,30.25,10.0,Calm,Calm,-,N/A,,Clear,0,2013-09-09 10:52:00
7:07 AM,37.4,35.6,93,30.22,10.0,Calm,Calm,-,N/A,,Scattered Clouds,0,2013-09-09 11:07:00
7:52 AM,44.1,41.0,89,30.27,10.0,Calm,Calm,-,N/A,,Clear,0,2013-09-09 11:52:00
8:52 AM,51.1,39.9,66,30.27,10.0,Calm,Calm,-,N/A,,Clear,0,2013-09-09 12:52:00
9:52 AM,57.0,39.9,53,30.26,10.0,Variable,3.5,-,N/A,,Clear,0,2013-09-09 13:52:00
10:52 AM,57.9,39.0,49,30.26,10.0,WSW,5.8,-,N/A,,Clear,240,2013-09-09 14:52:00
11:52 AM,61.0,37.9,42,30.24,10.0,Variable,5.8,-,N/A,,Clear,0,2013-09-09 15:52:00
12:52 PM,63.0,39.0,41,30.23,10.0,Variable,4.6,-,N/A,,Clear,0,2013-09-09 16:52:00
1:52 PM,64.0,42.1,45,30.22,10.0,South,6.9,-,N/A,,Clear,190,2013-09-09 17:52:00
2:52 PM,64.9,41.0,42,30.21,10.0,SSW,9.2,-,N/A,,Clear,200,2013-09-09 18:52:00
3:52 PM,64.0,42.1,45,30.20,10.0,SSW,9.2,-,N/A,,Clear,200,2013-09-09 19:52:00
4:52 PM,64.0,44.1,48,30.19,10.0,SSW,9.2,-,N/A,,Clear,200,2013-09-09 20:52:00
5:52 PM,62.1,45.0,53,30.19,10.0,SSW,8.1,-,N/A,,Clear,210,2013-09-09 21:52:00
6:52 PM,59.0,46.9,64,30.18,10.0,South,4.6,-,N/A,,Clear,170,2013-09-09 22:52:00
7:52 PM,57.9,46.9,67,30.18,10.0,SSW,5.8,-,N/A,,Clear,210,2013-09-09 23:52:00
8:52 PM,57.0,48.0,72,30.18,10.0,SW,3.5,-,N/A,,Clear,220,2013-09-10 00:52:00
9:52 PM,55.9,48.0,75,30.17,10.0,SSW,5.8,-,N/A,,Clear,200,2013-09-10 01:52:00
10:52 PM,55.9,48.0,75,30.17,10.0,SW,3.5,-,N/A,,Clear,220,2013-09-10 02:52:00
11:52 PM,55.0,48.9,80,30.17,10.0,SSW,4.6,-,N/A,,Clear,210,2013-09-10 03:52:00